Weather History for Clines Corner, NM

Change the Weather History Date:

Friday, August 16, 2013

  Actual Average (KSAF) Record (KSAF)
Temperature  
Mean Temperature 72 °F -  
Max Temperature 87 °F 82 °F 93 °F (2002)
Min Temperature 61 °F 51 °F 51 °F (1980)
Cooling Degree Days 8    
Growing Degree Days 22 (Base 50)    
Moisture  
Dew Point 43 °F    
Average Humidity 39    
Maximum Humidity 60    
Minimum Humidity 18    
Precipitation  
Precipitation 0.00 in - - ()
Sea Level Pressure  
Sea Level Pressure 30.04 in    
Wind  
Wind Speed 13 mph (WSW)    
Max Wind Speed 24 mph    
Max Gust Speed 33 mph    
Visibility 10 miles    
Events      
Averages and records for this station are not official NWS values.
T = Trace of Precipitation, MM = Missing Value Source: NWS Daily Summary

Daily Weather History Graph

Daily Weather History Graph

Search for Another Location

Airport:

Trip Planner

Search our weather history database for the weather conditions in past years. The results will help you decide how hot, cold, wet, or windy it might be!

Date:

Astronomy

Aug. 16, 2013 Rise Set
Actual Time 6:23 AM MDT 7:49 PM MDT
Civil Twilight 5:56 AM MDT 8:16 PM MDT
Nautical Twilight 5:24 AM MDT 8:48 PM MDT
Astronomical Twilight 4:51 AM MDT 9:21 PM MDT
Moon 4:06 PM MDT (8/16) 1:33 AM MDT (8/16)
Length of Visible Light 14h 19m
Length of Day
13h 25m
Waxing Gibbous, 75% of the Moon is Illuminated
Aug 16
Waxing Gibbous
Aug 20
Full
Aug 28
Last Quarter
Sep 5
New
Sep 12
First Quarter

Hourly Weather History & Observations

Time (MDT) Temp. Dew Point Humidity Pressure Visibility Wind Dir Wind Speed Gust Speed Precip Events Conditions
12:53 AM 63.0 °F 46.9 °F 56% 30.03 in 10.0 mi SW 12.7 mph - N/A   Partly Cloudy
1:53 AM 63.0 °F 46.9 °F 56% 30.02 in 10.0 mi SW 11.5 mph - N/A   Scattered Clouds
2:53 AM 62.1 °F 46.9 °F 58% 30.01 in 10.0 mi WSW 10.4 mph - N/A   Clear
3:53 AM 62.1 °F 46.0 °F 56% 30.00 in 10.0 mi WSW 11.5 mph - N/A   Clear
4:53 AM 61.0 °F 46.9 °F 60% 30.01 in 10.0 mi WSW 9.2 mph - N/A   Clear
5:53 AM 61.0 °F 46.9 °F 60% 30.02 in 10.0 mi WSW 13.8 mph - N/A   Scattered Clouds
6:53 AM 61.0 °F 46.9 °F 60% 30.03 in 10.0 mi WSW 16.1 mph - N/A   Clear
7:53 AM 64.9 °F 48.0 °F 54% 30.03 in 10.0 mi West 11.5 mph - N/A   Scattered Clouds
8:53 AM 69.1 °F 46.9 °F 45% 30.05 in 10.0 mi WNW 15.0 mph - N/A   Clear
9:53 AM 73.0 °F 46.9 °F 39% 30.06 in 10.0 mi WNW 15.0 mph - N/A   Clear
10:53 AM 78.1 °F 45.0 °F 31% 30.04 in 10.0 mi NW 12.7 mph - N/A   Clear
11:53 AM 81.0 °F 43.0 °F 26% 30.03 in 10.0 mi WNW 13.8 mph - N/A   Clear
12:53 PM 84.0 °F 42.1 °F 23% 30.01 in 10.0 mi WNW 12.7 mph - N/A   Clear
1:53 PM 84.9 °F 37.0 °F 18% 29.99 in 10.0 mi NNW 24.2 mph 33.4 mph N/A   Clear
2:06 PM 82.4 °F 35.6 °F 19% 30.33 in 10.0 mi NE 23.0 mph 28.8 mph N/A   Clear
2:53 PM 82.9 °F 36.0 °F 19% 30.00 in 10.0 mi NE 13.8 mph 20.7 mph N/A   Clear
3:53 PM 81.0 °F 36.0 °F 20% 30.00 in 10.0 mi ESE 12.7 mph 20.7 mph N/A   Scattered Clouds
4:53 PM 82.0 °F 35.1 °F 18% 29.99 in 10.0 mi Variable 5.8 mph - N/A   Mostly Cloudy
5:53 PM 80.1 °F 37.0 °F 21% 30.00 in 10.0 mi ESE 12.7 mph - N/A   Partly Cloudy
6:53 PM 78.1 °F 37.0 °F 23% 30.01 in 10.0 mi ESE 11.5 mph - N/A   Clear
7:53 PM 72.0 °F 39.9 °F 31% 30.04 in 10.0 mi SE 11.5 mph - N/A   Clear
8:53 PM 69.1 °F 42.1 °F 38% 30.06 in 10.0 mi SSE 8.1 mph - N/A   Partly Cloudy
9:53 PM 70.0 °F 46.0 °F 42% 30.06 in 10.0 mi SSE 9.2 mph - N/A   Partly Cloudy
10:53 PM 68.0 °F 46.0 °F 45% 30.07 in 10.0 mi SW 8.1 mph - N/A   Mostly Cloudy
11:53 PM 66.0 °F 46.0 °F 48% 30.06 in 10.0 mi ESE 5.8 mph - N/A   Scattered Clouds